When you browse on this site, cookies collect data to enhance your experience and personalize the content and advertising you see.
Visit our Privacy Policy to learn more. By continuing to use the site, you agree to this use of cookies and data.
  • In Switzerland
  • List of Countries
  • For 7 days
  • Water Temperature
  • Satellite Maps
  • Weather Map
  • Weather Widgets
  • user-avatar
    Login

    Hourly Weather Hobart

    Today, 23 March, Saturday

    Time Temperature Precipitation Wind Pressure Humidity
    00:00 +15°C° 0 mm 2 mps 748 mmHg 95%
    01:00 +15°C° 0 mm 2 mps 748 mmHg 95%
    02:00 +15°C° 0 mm 2 mps 747 mmHg 94%
    03:00 +15°C° 0 mm 2 mps 747 mmHg 94%
    04:00 +14°C° 0 mm 3 mps 746 mmHg 94%
    05:00 +14°C° 0 mm 3 mps 746 mmHg 92%
    06:00 +14°C° 0 mm 3 mps 745 mmHg 91%
    07:00 +14°C° 0 mm 3 mps 745 mmHg 89%
    08:00 +17°C° 0 mm 3 mps 745 mmHg 80%
    09:00 +19°C° 0 mm 4 mps 744 mmHg 70%
    10:00 +21°C° 0 mm 4 mps 744 mmHg 61%
    11:00 +22°C° 0 mm 4 mps 743 mmHg 55%
    12:00 +23°C° 0 mm 5 mps 742 mmHg 50%
    13:00 +25°C° 0 mm 5 mps 742 mmHg 44%
    14:00 +25°C° 0.1 mm 5 mps 741 mmHg 49%
    15:00 +23°C° 0.1 mm 5 mps 740 mmHg 54%
    16:00 +23°C° 0.1 mm 5 mps 739 mmHg 59%
    17:00 +22°C° 0 mm 4 mps 739 mmHg 62%
    18:00 +21°C° 0 mm 4 mps 739 mmHg 65%
    19:00 +21°C° 0 mm 3 mps 739 mmHg 68%
    20:00 +20°C° 0 mm 3 mps 739 mmHg 71%
    21:00 +19°C° 0 mm 3 mps 739 mmHg 74%
    22:00 +19°C° 0 mm 2 mps 739 mmHg 77%
    23:00 +18°C° 0 mm 2 mps 739 mmHg 79%

    Tomorrow, 24 March, Sunday

    Time Temperature Precipitation Wind Pressure Humidity
    00:00 +17°C° 0 mm 3 mps 740 mmHg 81%
    01:00 +17°C° 0 mm 3 mps 740 mmHg 83%
    02:00 +16°C° 0 mm 3 mps 740 mmHg 83%
    03:00 +16°C° 0 mm 2 mps 740 mmHg 83%
    04:00 +15°C° 0 mm 2 mps 740 mmHg 84%
    05:00 +15°C° 0 mm 2 mps 741 mmHg 83%
    06:00 +15°C° 0 mm 2 mps 741 mmHg 83%
    07:00 +15°C° 0 mm 2 mps 741 mmHg 82%
    08:00 +18°C° 0.1 mm 1 mps 742 mmHg 73%
    09:00 +20°C° 0.1 mm 1 mps 742 mmHg 65%
    10:00 +22°C° 0.1 mm 1 mps 742 mmHg 56%
    11:00 +23°C° 0 mm 1 mps 741 mmHg 49%
    12:00 +24°C° 0 mm 2 mps 741 mmHg 43%
    13:00 +25°C° 0 mm 2 mps 741 mmHg 36%
    14:00 +26°C° 0 mm 2 mps 740 mmHg 35%
    15:00 +26°C° 0 mm 2 mps 739 mmHg 34%
    16:00 +26°C° 0 mm 2 mps 738 mmHg 33%
    17:00 +24°C° 0 mm 3 mps 737 mmHg 41%
    18:00 +21°C° 0 mm 3 mps 737 mmHg 49%
    19:00 +19°C° 0 mm 4 mps 736 mmHg 56%
    20:00 +19°C° 0 mm 4 mps 736 mmHg 61%
    21:00 +19°C° 0 mm 5 mps 735 mmHg 66%
    22:00 +17°C° 0 mm 5 mps 734 mmHg 71%
    23:00 +19°C° 0 mm 6 mps 733 mmHg 69%

    Day after tomorrow, 25 March, Monday

    Time Temperature Precipitation Wind Pressure Humidity
    00:00 +20°C° 0 mm 6 mps 732 mmHg 68%
    01:00 +20°C° 0 mm 7 mps 731 mmHg 67%
    02:00 +20°C° 0.2 mm 6 mps 731 mmHg 66%
    03:00 +19°C° 0.2 mm 6 mps 730 mmHg 65%
    04:00 +17°C° 0.2 mm 6 mps 730 mmHg 64%
    05:00 +16°C° 0 mm 6 mps 730 mmHg 63%
    06:00 +14°C° 0 mm 7 mps 730 mmHg 62%
    07:00 +12°C° 0 mm 7 mps 730 mmHg 61%
    08:00 +12°C° 0.1 mm 8 mps 731 mmHg 60%
    09:00 +11°C° 0.1 mm 8 mps 731 mmHg 59%
    10:00 +11°C° 0.1 mm 8 mps 732 mmHg 58%
    11:00 +11°C° 0.1 mm 8 mps 732 mmHg 55%
    12:00 +11°C° 0.1 mm 8 mps 732 mmHg 52%
    13:00 +11°C° 0.1 mm 8 mps 732 mmHg 50%
    14:00 +11°C° 0 mm 9 mps 732 mmHg 50%
    15:00 +11°C° 0 mm 9 mps 732 mmHg 50%
    16:00 +11°C° 0 mm 10 mps 732 mmHg 50%
    17:00 +10°C° 0.1 mm 9 mps 733 mmHg 55%
    18:00 +8°C° 0.1 mm 9 mps 733 mmHg 61%
    19:00 +7°C° 0.1 mm 8 mps 734 mmHg 66%
    20:00 +7°C° 0 mm 8 mps 734 mmHg 65%
    21:00 +9°C° 0 mm 8 mps 735 mmHg 64%
    22:00 +9°C° 0 mm 8 mps 736 mmHg 62%
    23:00 +8°C° 0 mm 9 mps 736 mmHg 60%

    26 March, Tuesday

    Time Temperature Precipitation Wind Pressure Humidity
    00:00 +8°C° 0 mm 9 mps 737 mmHg 58%
    01:00 +8°C° 0 mm 9 mps 737 mmHg 56%
    02:00 +7°C° 0 mm 8 mps 738 mmHg 58%
    03:00 +8°C° 0 mm 7 mps 739 mmHg 60%
    04:00 +7°C° 0 mm 6 mps 739 mmHg 63%
    05:00 +8°C° 0 mm 6 mps 740 mmHg 62%
    06:00 +8°C° 0 mm 6 mps 741 mmHg 61%
    07:00 +9°C° 0 mm 7 mps 742 mmHg 60%
    08:00 +10°C° 0 mm 7 mps 743 mmHg 57%
    09:00 +11°C° 0 mm 7 mps 744 mmHg 53%
    10:00 +12°C° 0 mm 8 mps 745 mmHg 50%
    11:00 +14°C° 0 mm 7 mps 745 mmHg 48%
    12:00 +15°C° 0 mm 7 mps 746 mmHg 46%
    13:00 +16°C° 0 mm 7 mps 746 mmHg 44%
    14:00 +15°C° 0 mm 7 mps 747 mmHg 46%
    15:00 +15°C° 0 mm 6 mps 747 mmHg 47%
    16:00 +15°C° 0 mm 6 mps 747 mmHg 48%
    17:00 +14°C° 0 mm 5 mps 748 mmHg 55%
    18:00 +13°C° 0 mm 4 mps 749 mmHg 61%
    19:00 +12°C° 0 mm 3 mps 749 mmHg 68%
    20:00 +11°C° 0 mm 3 mps 750 mmHg 72%
    21:00 +11°C° 0 mm 3 mps 751 mmHg 76%
    22:00 +10°C° 0 mm 3 mps 752 mmHg 80%
    23:00 +10°C° 0 mm 2 mps 752 mmHg 83%

    27 March, Wednesday

    Time Temperature Precipitation Wind Pressure Humidity
    00:00 +9°C° 0 mm 2 mps 752 mmHg 85%
    01:00 +9°C° 0 mm 2 mps 752 mmHg 88%
    02:00 +8°C° 0 mm 2 mps 752 mmHg 90%
    03:00 +8°C° 0 mm 2 mps 752 mmHg 92%
    04:00 +8°C° 0 mm 2 mps 752 mmHg 94%
    05:00 +9°C° 0 mm 1 mps 753 mmHg 93%
    06:00 +9°C° 0 mm 1 mps 753 mmHg 93%
    07:00 +9°C° 0 mm 1 mps 753 mmHg 93%
    08:00 +11°C° 0 mm 1 mps 754 mmHg 80%
    09:00 +14°C° 0 mm 1 mps 754 mmHg 68%
    10:00 +16°C° 0 mm 1 mps 754 mmHg 56%
    11:00 +19°C° 0 mm 1 mps 754 mmHg 50%
    12:00 +21°C° 0 mm 1 mps 753 mmHg 45%
    13:00 +23°C° 0 mm 1 mps 753 mmHg 39%
    14:00 +22°C° 0 mm 1 mps 753 mmHg 40%
    15:00 +21°C° 0 mm 2 mps 752 mmHg 41%
    16:00 +21°C° 0 mm 2 mps 752 mmHg 42%
    17:00 +18°C° 0 mm 2 mps 752 mmHg 54%
    18:00 +16°C° 0 mm 1 mps 752 mmHg 65%
    19:00 +14°C° 0 mm 1 mps 751 mmHg 76%
    20:00 +13°C° 0 mm 1 mps 751 mmHg 79%
    21:00 +13°C° 0 mm 1 mps 751 mmHg 82%
    22:00 +12°C° 0 mm 1 mps 751 mmHg 84%
    23:00 +12°C° 0 mm 1 mps 751 mmHg 85%

    28 March, Thursday

    Time Temperature Precipitation Wind Pressure Humidity
    00:00 +12°C° 0 mm 1 mps 750 mmHg 86%
    01:00 +12°C° 0 mm 2 mps 750 mmHg 86%
    02:00 +10°C° 0 mm 2 mps 749 mmHg 85%
    03:00 +10°C° 0 mm 2 mps 749 mmHg 85%
    04:00 +10°C° 0 mm 2 mps 749 mmHg 84%
    05:00 +12°C° 0 mm 2 mps 749 mmHg 82%
    06:00 +12°C° 0 mm 2 mps 749 mmHg 80%
    07:00 +12°C° 0 mm 2 mps 749 mmHg 77%
    08:00 +14°C° 0 mm 3 mps 748 mmHg 67%
    09:00 +18°C° 0 mm 3 mps 748 mmHg 57%
    10:00 +21°C° 0 mm 4 mps 748 mmHg 47%
    11:00 +21°C° 0 mm 4 mps 748 mmHg 44%
    12:00 +22°C° 0 mm 4 mps 747 mmHg 42%
    13:00 +23°C° 0 mm 4 mps 747 mmHg 39%
    14:00 +23°C° 0 mm 4 mps 746 mmHg 41%
    15:00 +22°C° 0 mm 4 mps 745 mmHg 43%
    16:00 +22°C° 0 mm 4 mps 745 mmHg 45%
    17:00 +20°C° 0 mm 3 mps 745 mmHg 53%
    18:00 +18°C° 0 mm 2 mps 745 mmHg 61%
    19:00 +16°C° 0 mm 1 mps 745 mmHg 68%
    20:00 +15°C° 0 mm 2 mps 744 mmHg 73%
    21:00 +14°C° 0 mm 2 mps 744 mmHg 79%
    22:00 +14°C° 0 mm 2 mps 744 mmHg 84%
    23:00 +13°C° 0 mm 2 mps 743 mmHg 83%
    Show more